OPS 6226

Satellite information

Favourite Embed

Satellite Type and Status

PAYLOADIN ORBIT

Key statistics

Satellite OPS 6226 at a glance.

Uptime

18411

Days in orbit

Revolutions

≈ 14.3

Per day

Orbit

SSO

Sun Synchronous Orbit

Inclination

98.6

Latest

Satellite identification and parameters

Extended collection of information and parameters for OPS 6226.

Object identification

Identified? True

Debris? False

Object name: OPS 6226

International designator: 1975-043A

Object number (NORAD): 7816

Object ID (CCSDS): 7816

Country: UNITED STATES OF AMERICA (US)

Current information (Y/N): Y

RCS size: LARGE

Orbital parameters

Period: 101.047 minutes

Inclination: 98.6292 deg

SMA: 7186.341 km

Apoapsis: 845.703 km

Periapsis: 770.709 km

RAAN: 137.172 deg

Eccentricy: 0.00521782

Argument of periapsis: 160.8683 deg

Mean anomaly: 199.4472 deg

Mean motion: 14.25085839 rev/day

Mean motion (dot): 0.00000437 rev/day2

B* drag term: 0.00020187096 1/REarth

Two-line elements (TLE)

Creation date: Oct. 19, 2025, 2:20 a.m.

Reference frame: TEME

Reference center: EARTH

Epoch: Oct. 18, 2025, 9:43 p.m. UTC

TLE line 0: 0 OPS 6226

TLE line 1: 1 07816U 75043A 25291.90497449 .00000437 00000-0 20187-3 0 9991

TLE line 2: 2 07816 98.6292 137.1720 0052178 160.8683 199.4472 14.25085839325478

Live tracking on map

Real-time ground track for satellite OPS 6226.

In-orbit conjunctions

There are no conjunctions computed for OPS 6226, at the moment. Check back to stay up to date, as we update our databases every day.

Go to all conjunctions

Associated space launch

Military meteorological satellite

OPS 6226 was lifted into orbit during the mission ‘Thor Burner 2A | DMSP-5C F2’, on board a Thor Burner 2A space rocket.

The launch took place on May 24, 1975, 3:22 a.m. from Space Launch Complex 10W.

For more information about the launch, click the button.

Launch to space Thor Burner 2A | DMSP-5C F2
Thor Burner 2A | DMSP-5C F2

Agency: N/A

Status: Launch Successful

Launch date: May 24, 1975, 3:22 a.m. UTC

Rocket: Thor Burner 2A

Launch pad: Space Launch Complex 10W

Location: Vandenberg SFB, CA, USA

...

Latest news about this satellite

There are no fresh news available about this satellite. Check back as we update our databases every day.


Newsletter sign-up

Weekly statistics, charts and insights to help you stay on top of the space industry.